Flag for Germany Weather past 2 weeks in Wiehl, North Rhine-Westphalia, Germany

Now
61 °F

Sprinkles. Partly sunny.


Feels Like: 61 °F
Forecast: 49 / 61 °F
Wind: 3 mph from West

Location: Koeln / Bonn

Current Time: Aug 22, 2014 at 7:46:16 PM

Latest Report: Aug 22, 2014 at 7:20 PM


Visibility: N/A

Pressure: 29.86 "Hg

Humidity: 77%

Dew point: 54 °F

Location of WiehlLocation

Historic Weather in Wiehl — Graph

°F

Wiehl temperature yesterday

Maximum temperature yesterday: 66 °F (at 3:20 PM)
Minimum temperature yesterday: 46 °F (at 6:20 AM)
Average temperature yesterday: 56 °F

Past Weeks' High & Low Weather Summary

 TemperatureHumidityPressure
High79 °F (Aug 8, 12:20 PM)100% (Aug 16, 1:50 AM)30.09 "Hg (Aug 16, 1:50 AM)
Low45 °F (Aug 20, 5:20 AM)40% (Aug 18, 2:20 PM)29.62 "Hg (Aug 10, 6:20 PM)
Average60 °F78%29.88 "Hg
* Reported Aug 7 6:20 PM — Aug 22 6:50 PM, Wiehl, Weather by CustomWeather, © 2014

Note: Actual official high and low records may vary slightly from our data, if they occured in-between our weather recording intervals... More about our weather records

Advertising

Wiehl weather history for previous 24 hours

 ConditionsComfort  
Time TempWeatherWind HumidityBarometerVisibility
6:50 PM
Aug 22
61 °FBroken clouds.8 mph72%29.86 "HgN/A
6:20 PM63 °FBroken clouds.8 mph64%29.86 "HgN/A
5:50 PM63 °FBroken clouds.9 mph64%29.86 "HgN/A
5:20 PM63 °FSunny.6 mph73%29.86 "Hg10 mi
4:50 PM64 °FSprinkles. Broken clouds.7 mph60%29.86 "HgN/A
4:20 PM64 °FSunny.8 mph60%29.86 "Hg10 mi
3:50 PM64 °FSunny.9 mph56%29.86 "Hg10 mi
3:20 PM64 °FSunny.10 mph56%29.89 "Hg10 mi
2:50 PM66 °FBroken clouds.7 mph56%29.89 "HgN/A
2:20 PM64 °FSprinkles. Partly sunny.13 mph52%29.89 "HgN/A
1:50 PM66 °FBroken clouds.15 mph49%29.89 "HgN/A
1:20 PM64 °FPartly sunny.14 mph52%29.89 "HgN/A
12:50 PM66 °FBroken clouds.13 mph52%29.89 "HgN/A
12:20 PM64 °FBroken clouds.10 mph52%29.92 "HgN/A
11:50 AM63 °FBroken clouds.12 mph56%29.92 "HgN/A
11:20 AM63 °FPartly sunny.10 mph56%29.92 "HgN/A
10:50 AM63 °FSunny.10 mph64%29.92 "Hg10 mi
10:20 AM61 °FSunny.10 mph59%29.92 "Hg10 mi
9:50 AM59 °FSunny.10 mph68%29.92 "Hg10 mi
9:20 AM57 °FSunny.10 mph72%29.92 "Hg10 mi
8:50 AM57 °FSunny.10 mph67%29.92 "Hg10 mi
8:20 AM55 °FPartly sunny.10 mph72%29.92 "HgN/A
7:50 AM54 °FSunny.7 mph77%29.92 "Hg10 mi
7:20 AM52 °FClear.8 mph82%29.92 "Hg10 mi
6:50 AM52 °FClear.7 mph82%29.92 "Hg10 mi
6:20 AM52 °FClear.5 mph82%29.92 "Hg10 mi
5:50 AM52 °FClear.7 mph82%29.95 "Hg10 mi
5:20 AM52 °FClear.2 mph82%29.95 "Hg10 mi
4:20 AM52 °FClear.6 mph82%29.95 "Hg10 mi
3:50 AM52 °FClear.7 mph82%29.95 "Hg10 mi
3:20 AM52 °FClear.7 mph82%29.95 "Hg10 mi
2:50 AM52 °FClear.8 mph82%29.95 "Hg10 mi
2:20 AM54 °FClear.7 mph82%29.98 "Hg10 mi
1:50 AM54 °FClear.8 mph82%29.98 "Hg10 mi
1:20 AM54 °FClear.7 mph82%29.98 "Hg10 mi
12:50 AM54 °FClear.7 mph82%29.98 "Hg10 mi
12:20 AM55 °FClear.5 mph77%29.98 "Hg10 mi
11:50 PM
Aug 21
55 °FClear.2 mph77%29.98 "Hg10 mi
11:20 PM55 °FClear.5 mph77%29.98 "Hg10 mi
10:50 PM55 °FClear.6 mph77%29.98 "Hg10 mi
10:20 PM55 °FClear.5 mph82%29.98 "Hg10 mi
9:50 PM55 °FClear.3 mph82%29.98 "Hg10 mi
9:20 PM57 °FSunny.5 mph77%29.98 "Hg10 mi
8:50 PM57 °FSprinkles. Scattered clouds.5 mph72%29.98 "HgN/A
8:20 PM57 °FScattered showers. Partly sunny.7 mph77%29.98 "HgN/A
7:50 PM59 °FScattered clouds.6 mph72%29.98 "HgN/A
7:20 PM59 °FSunny.6 mph68%29.98 "Hg10 mi
Weather by CustomWeather, © 2014

See weather overviewHow to use our weather pages